RAPIDEYE 2 (33312 NORAD) Tracking and Keplerian Element Data

This shows tracking and keplerian element data for the satellite.

Feedback or suggestion? Click here.




ElementValue
Catalog33312
NameRAPIDEYE 2
Epoch Orbit65062
Epoch Day255.63533641
Epoch Year2020
RAAN319.0611
Inclination97.6855
Eccentricity0.0013367
Argument of Perigee94.1867
Mean Anonmoly266.0882
Mean Motion14.96112357
Decay Rate-2.52E-06
L11 33312U 08040A 20255.63533641 -.00000252 00000-0 -17246-4 0 9994
L22 33312 97.6855 319.0611 0013367 94.1867 266.0882 14.96112357650620



Live tracking and technical data element details for RAPIDEYE 2 (NORAD 33312). RAPIDEYE 2 can be tracked NOW for your location showing map with azimuth and elevation plus other details from your city location.







IsCatalogInMostPopularTable: catalog: 33312, numindb: 327
Update: records affected: 1



GetName: 33312 RAPIDEYE 2

Hit Count: updated at: Thu, 22 May 2025 04:36:53 GMT